Temp
0 2 2 2 1 2 2 2 2 1 1 1 1 1 0 -0 1 1 1 1 1 1 1 1 1 1 1 1 0 0 0 0 0 0 0 0 0 0 -0 -0 0 0 0
-0 1 2 2 1 1 2 1 1 1 1 1 1 1 1 0 1 1 1 1 1 1 1 1 1 0 0 0 -0 -0 -0 -0 -0 -0 -1 -1 -1 -1 -1 -1 -1 -1 -1
1 1 2 2 2 2 1 1 1 1 1 0 0 0 0 1 -0 1 1 1 1 0 1 1 0 -0 -0 -0 -1 -1 -1 -0 -1 -1 -1 -1 -1 -1 -1 -1 -1 -1 -1
1 1 1 1 2 1 1 1 1 1 1 0 0 1 0 0 -0 0 0 0 1 1 1 1 -0 -0 -0 -1 -1 -1 -1 -1 -2 -2 -2 -2 -2 -2 -2 -2 -2 -2 -2
1 1 1 1 1 1 1 1 1 0 0 0 1 0 -0 0 -0 -0 -0 -0 0 0 0 0 -0 -0 -0 -1 -1 -2 -2 -2 -2 -3 -3 -3 -3 -3 -3 -4 -4 -4 -4
1 1 1 2 1 1 1 1 0 0 0 0 -0 0 -0 -1 -1 -0 0 -0 0 0 0 -0 0 -0 -1 -1 -2 -2 -2 -3 -3 -3 -4 -4 -4 -4 -4 -5 -5 -5 -5
0 0 1 1 1 1 1 1 0 0 0 -0 -1 -1 -1 -1 -0 -1 -1 -0 -1 -0 -1 -1 -1 -1 -1 -1 -2 -2 -3 -3 -3 -4 -4 -4 -5 -5 -5 -6 -6 -6 -6
0 0 1 1 1 1 1 0 0 -0 0 -0 -1 -1 -2 -2 -1 -1 -1 -1 -1 -1 -1 -1 -1 -2 -2 -2 -2 -3 -3 -4 -4 -5 -5 -5 -5 -6 -6 -6 -7 -7 -7
1 1 1 2 1 2 1 0 0 0 -0 -0 -1 -1 -2 -1 -2 -2 -2 -2 -2 -2 -2 -2 -2 -2 -3 -3 -3 -3 -4 -4 -5 -5 -6 -6 -6 -7 -7 -7 -7 -8 -8
2 1 2 2 2 2 1 1 0 -0 -0 -0 -1 -1 -2 -2 -3 -3 -3 -3 -3 -3 -3 -3 -3 -3 -3 -3 -4 -4 -4 -5 -6 -6 -7 -7 -7 -8 -8 -8 -8 -8 -8
1 1 1 2 2 1 1 1 1 0 -0 -1 -1 -2 -3 -3 -2 -2 -2 -2 -3 -3 -3 -3 -4 -4 -5 -6 -6 -6 -6 -6 -6 -7 -7 -8 -8 -9 -9 -9 -9 -9 -10
1 2 1 1 1 1 1 0 1 0 -1 -1 -2 -2 -3 -3 -3 -3 -3 -3 -2 -2 -3 -4 -5 -6 -6 -7 -7 -7 -7 -7 -7 -8 -8 -9 -9 -9 -10 -10 -11 -11 -11
2 1 1 1 1 1 0 0 -0 -0 -1 -1 -1 -2 -3 -3 -3 -3 -3 -3 -3 -3 -4 -4 -6 -6 -6 -7 -7 -7 -8 -8 -9 -9 -9 -10 -10 -11 -11 -11 -12 -13 -13
1 1 1 1 1 0 0 0 -1 -1 -2 -2 -2 -3 -3 -3 -3 -4 -4 -4 -4 -4 -4 -5 -6 -7 -7 -8 -8 -8 -9 -9 -10 -10 -11 -11 -12 -13 -13 -12 -13 -14 -14
2 1 1 -0 0 -1 -0 0 -1 -2 -2 -2 -2 -2 -3 -3 -3 -4 -5 -5 -5 -4 -4 -5 -6 -7 -7 -8 -9 -9 -9 -10 -10 -11 -12 -13 -13 -14 -15 -15 -15 -14 -15
2 2 2 1 1 -0 -0 -1 -1 -2 -2 -2 -2 -2 -3 -3 -4 -4 -5 -5 -5 -5 -5 -6 -7 -8 -9 -9 -10 -10 -11 -12 -12 -13 -13 -14 -15 -15 -15 -16 -15 -16 -16
2 2 1 1 1 1 -1 -1 -1 -1 -2 -3 -3 -3 -3 -4 -4 -5 -5 -6 -6 -7 -7 -7 -8 -9 -9 -10 -10 -11 -12 -14 -14 -15 -15 -15 -15 -15 -16 -16 -16 -16 -16
2 2 2 1 1 -0 -2 -2 -2 -2 -2 -3 -4 -3 -4 -5 -5 -6 -6 -6 -7 -8 -9 -8 -9 -9 -9 -10 -11 -12 -13 -14 -15 -14 -15 -16 -16 -16 -16 -16 -16 -16 -16
2 1 1 0 -0 -2 -2 -2 -2 -2 -2 -4 -4 -4 -5 -5 -6 -6 -7 -8 -8 -9 -9 -9 -9 -9 -10 -11 -11 -12 -13 -15 -15 -15 -15 -16 -16 -16 -16 -16 -16 -16 -17
1 1 1 -1 -1 -1 -2 -2 -2 -3 -3 -4 -4 -5 -5 -6 -7 -7 -8 -8 -9 -9 -9 -9 -9 -9 -10 -10 -11 -12 -13 -15 -15 -15 -15 -16 -16 -16 -16 -17 -17 -17 -17
1 0 0 -1 -1 -2 -2 -2 -3 -3 -4 -4 -5 -5 -6 -7 -7 -8 -8 -9 -9 -9 -9 -10 -10 -10 -10 -10 -12 -14 -15 -15 -16 -16 -16 -15 -16 -16 -17 -17 -17 -17 -18
1 1 -0 -1 -2 -1 -2 -3 -3 -4 -5 -5 -6 -7 -7 -8 -8 -8 -9 -9 -9 -10 -10 -10 -10 -11 -10 -11 -12 -14 -16 -15 -16 -16 -16 -16 -16 -17 -17 -17 -18 -18 -17
0 -1 -1 -1 -2 -2 -3 -4 -4 -5 -6 -6 -7 -7 -8 -8 -8 -8 -9 -9 -9 -10 -10 -11 -11 -11 -11 -12 -13 -14 -16 -16 -17 -17 -16 -16 -17 -17 -17 -18 -17 -17 -17
-1 -1 -1 -1 -2 -2 -4 -4 -5 -6 -7 -7 -8 -8 -8 -8 -9 -9 -9 -9 -10 -10 -11 -11 -12 -11 -12 -12 -13 -15 -16 -16 -17 -17 -17 -17 -17 -17 -18 -17 -17 -18 -18
-1 -1 -2 -2 -4 -5 -5 -5 -6 -7 -7 -8 -8 -8 -8 -9 -9 -9 -10 -10 -10 -11 -11 -11 -12 -12 -12 -13 -14 -15 -17 -16 -17 -16 -17 -18 -17 -17 -17 -17 -18 -18 -18
-2 -3 -3 -4 -5 -5 -6 -6 -7 -8 -8 -8 -8 -9 -9 -10 -10 -10 -10 -11 -11 -11 -11 -12 -12 -12 -13 -14 -15 -15 -17 -17 -17 -17 -17 -18 -18 -18 -17 -17 -18 -18 -18
Height
3156 3161 3162 3165 3166 3169 3169 3170 3173 3172 3171 3170 3171 3171 3169 3169 3170 3170 3169 3169 3168 3168 3166 3165 3163 3161 3160 3157 3154 3152 3150 3148 3145 3144 3142 3140 3139 3137 3136 3135 3134 3132 3131
3155 3158 3161 3162 3165 3166 3167 3170 3170 3170 3169 3169 3169 3169 3169 3167 3168 3168 3168 3167 3165 3164 3163 3160 3159 3158 3155 3153 3151 3148 3146 3143 3142 3140 3138 3136 3134 3133 3131 3130 3128 3127 3125
3154 3156 3159 3163 3164 3164 3167 3168 3167 3167 3168 3167 3167 3167 3166 3165 3165 3166 3165 3163 3163 3162 3159 3157 3156 3153 3151 3148 3146 3144 3142 3140 3138 3136 3134 3131 3129 3127 3126 3124 3122 3121 3120
3150 3156 3158 3159 3161 3163 3165 3164 3165 3164 3164 3165 3165 3164 3165 3164 3162 3160 3161 3160 3159 3158 3157 3154 3151 3148 3146 3144 3142 3140 3137 3135 3133 3130 3128 3126 3124 3122 3120 3118 3115 3113 3111
3150 3152 3154 3156 3159 3160 3162 3161 3161 3161 3160 3162 3161 3161 3160 3160 3159 3158 3155 3153 3152 3151 3150 3149 3146 3144 3143 3140 3138 3137 3133 3131 3128 3125 3123 3120 3118 3116 3114 3111 3109 3107 3104
3147 3149 3151 3153 3156 3158 3158 3158 3157 3158 3158 3158 3157 3158 3157 3156 3156 3155 3153 3151 3149 3147 3144 3141 3139 3138 3137 3134 3131 3133 3129 3126 3123 3120 3117 3115 3112 3110 3107 3104 3102 3099 3097
3143 3144 3149 3151 3153 3154 3155 3154 3154 3154 3155 3155 3154 3153 3152 3151 3151 3149 3147 3146 3144 3143 3139 3137 3136 3133 3130 3127 3124 3124 3123 3120 3118 3115 3112 3109 3106 3103 3099 3096 3093 3090 3088
3139 3142 3146 3149 3149 3150 3151 3151 3151 3149 3150 3151 3151 3150 3148 3148 3146 3144 3142 3140 3138 3137 3136 3132 3129 3125 3123 3121 3117 3115 3115 3114 3112 3109 3106 3102 3099 3096 3092 3087 3083 3080 3077
3137 3139 3144 3144 3144 3146 3147 3146 3146 3146 3146 3148 3147 3146 3144 3141 3138 3138 3136 3135 3132 3129 3126 3124 3123 3120 3116 3113 3111 3108 3107 3106 3104 3101 3097 3094 3090 3086 3082 3077 3074 3071 3068
3135 3137 3139 3142 3142 3140 3141 3142 3142 3141 3140 3141 3142 3140 3138 3136 3133 3133 3130 3126 3123 3121 3117 3116 3114 3111 3109 3106 3102 3100 3099 3097 3095 3092 3089 3085 3081 3076 3071 3066 3062 3059 3056
3129 3132 3133 3135 3135 3134 3135 3136 3136 3135 3134 3132 3133 3133 3131 3130 3128 3125 3126 3127 3123 3119 3114 3110 3106 3103 3101 3097 3092 3090 3088 3085 3083 3082 3078 3075 3070 3064 3059 3054 3051 3046 3043
3128 3129 3129 3130 3129 3128 3129 3130 3130 3128 3129 3127 3125 3123 3122 3121 3119 3118 3116 3115 3113 3114 3110 3107 3102 3098 3094 3091 3086 3082 3079 3075 3071 3067 3065 3063 3058 3053 3048 3043 3038 3034 3031
3124 3125 3125 3124 3125 3123 3121 3121 3121 3120 3120 3120 3119 3118 3115 3113 3111 3111 3109 3106 3103 3102 3099 3099 3094 3091 3088 3084 3079 3075 3070 3065 3061 3056 3052 3049 3046 3041 3037 3033 3028 3021 3018
3119 3118 3118 3118 3118 3116 3116 3114 3111 3107 3109 3111 3110 3109 3107 3106 3104 3102 3101 3099 3094 3091 3090 3088 3085 3083 3078 3075 3071 3064 3060 3055 3051 3046 3041 3038 3034 3029 3024 3020 3014 3010 3006
3112 3111 3110 3109 3109 3109 3108 3104 3096 3101 3101 3100 3102 3100 3099 3099 3096 3094 3091 3088 3084 3081 3079 3078 3074 3072 3069 3065 3061 3056 3052 3048 3042 3036 3031 3027 3022 3017 3012 3007 3002 2999 2995
3104 3105 3105 3103 3102 3100 3097 3095 3092 3092 3094 3094 3093 3094 3092 3089 3087 3085 3083 3080 3076 3072 3066 3066 3064 3060 3056 3051 3047 3043 3038 3033 3028 3024 3019 3014 3011 3007 3002 2997 2993 2990 2984
3098 3098 3098 3098 3096 3092 3092 3093 3090 3089 3089 3089 3087 3084 3083 3081 3078 3076 3073 3070 3067 3063 3057 3054 3051 3049 3044 3040 3036 3031 3026 3021 3017 3012 3008 3005 3000 2996 2992 2989 2986 2983 2978
3091 3091 3091 3090 3089 3085 3086 3086 3083 3082 3082 3080 3079 3076 3074 3072 3069 3067 3062 3059 3056 3053 3047 3041 3039 3037 3033 3029 3023 3018 3015 3010 3006 3003 2997 2991 2988 2984 2982 2980 2977 2973 2969
3084 3083 3083 3083 3081 3079 3078 3076 3076 3075 3073 3072 3070 3067 3065 3062 3060 3056 3052 3049 3045 3042 3038 3033 3028 3026 3022 3017 3012 3006 3003 2998 2994 2990 2985 2980 2978 2975 2973 2970 2968 2964 2960
3076 3076 3076 3073 3073 3071 3071 3069 3069 3067 3065 3063 3061 3059 3056 3054 3050 3048 3044 3041 3037 3033 3030 3025 3020 3015 3012 3008 3001 2996 2991 2987 2981 2979 2974 2970 2969 2966 2963 2960 2958 2956 2952
3069 3068 3066 3065 3064 3064 3063 3061 3060 3058 3056 3054 3052 3050 3047 3045 3042 3038 3034 3029 3026 3022 3018 3014 3008 3003 2999 2993 2988 2982 2976 2973 2970 2968 2963 2960 2958 2957 2955 2952 2949 2946 2943
3061 3059 3057 3057 3058 3054 3053 3050 3050 3049 3048 3046 3043 3041 3038 3036 3032 3028 3024 3020 3016 3011 3007 3001 2995 2989 2985 2979 2974 2968 2964 2959 2957 2959 2953 2952 2949 2947 2945 2942 2940 2936 2934
3050 3050 3050 3049 3047 3045 3044 3042 3042 3041 3039 3037 3034 3031 3029 3026 3023 3018 3015 3011 3007 3003 2997 2990 2984 2978 2972 2967 2960 2955 2953 2949 2946 2947 2942 2941 2940 2938 2936 2932 2930 2927 2925
3043 3042 3041 3040 3036 3037 3035 3035 3034 3031 3029 3026 3024 3021 3018 3015 3012 3007 3003 2999 2996 2992 2986 2979 2972 2966 2959 2953 2947 2942 2939 2937 2936 2935 2933 2930 2932 2929 2926 2924 2921 2919 2918
3034 3034 3032 3031 3029 3028 3026 3024 3024 3022 3019 3017 3015 3011 3008 3004 3000 2996 2991 2987 2982 2979 2973 2966 2960 2953 2947 2940 2934 2929 2927 2927 2926 2927 2925 2921 2922 2919 2918 2916 2913 2912 2910
3026 3025 3024 3022 3020 3018 3016 3015 3013 3011 3009 3007 3004 3001 2997 2993 2989 2984 2978 2973 2968 2965 2958 2954 2949 2943 2935 2929 2923 2917 2917 2916 2917 2917 2919 2915 2914 2911 2908 2908 2906 2904 2903
Wind_Speed
25 28 20 17 13 11 5 7 9 7 7 6 4 5 6 7 7 5 5 7 10 15 18 21 22 22 21 22 22 22 22 21 22 21 21 22 22 23 23 23 24 26 27
28 25 20 14 12 10 6 10 9 8 8 6 6 6 6 9 7 6 4 8 12 16 22 24 23 23 23 23 22 23 24 24 23 22 22 22 22 23 24 24 25 25 27
29 18 14 16 14 9 9 10 9 9 7 7 7 7 9 9 9 6 4 9 13 19 24 24 24 24 25 26 26 24 24 24 25 25 24 24 25 25 26 26 28 28 28
26 25 20 15 11 9 11 9 10 8 7 6 8 8 9 9 13 13 11 16 18 20 25 26 24 26 27 27 26 25 26 26 26 26 26 26 25 26 29 31 33 35 36
27 20 18 15 12 14 11 11 9 9 8 9 11 10 11 11 12 15 18 23 21 23 28 27 27 28 27 27 26 25 26 26 26 26 26 27 29 31 33 35 35 36 38
23 19 16 16 17 16 12 11 10 11 11 11 13 14 12 13 16 18 19 20 20 25 30 31 32 32 31 30 29 23 23 25 26 27 28 30 33 35 37 38 39 40 41
21 18 18 18 18 15 14 13 14 15 13 12 14 15 18 20 21 21 19 20 23 27 32 33 31 31 31 31 32 28 25 26 28 29 32 35 36 38 40 41 42 43 43
18 20 19 17 19 18 17 17 17 18 18 15 16 15 21 23 20 21 24 24 28 31 31 32 34 35 33 32 33 32 29 28 30 33 35 37 39 41 42 44 45 46 48
18 19 14 17 21 21 19 19 21 21 21 18 18 20 24 26 28 24 22 25 31 33 34 35 34 34 34 35 35 34 34 33 33 34 36 39 41 42 44 46 47 47 48
19 18 19 18 20 25 22 23 25 24 24 23 21 23 27 27 29 23 25 30 33 33 34 37 38 38 36 36 37 37 38 38 35 36 37 40 41 43 45 47 48 49 49
17 19 20 17 19 23 26 27 29 28 26 28 28 29 30 28 25 25 25 24 27 32 34 38 38 37 37 38 41 42 42 42 40 38 39 40 41 43 46 48 49 50 49
20 21 22 25 27 25 27 31 32 31 28 30 33 32 32 33 30 30 28 27 31 33 34 35 32 32 34 37 40 41 43 44 45 46 44 42 44 45 46 47 49 49 48
22 22 23 25 29 34 33 34 35 35 34 32 34 34 37 38 37 33 28 31 33 36 36 35 30 31 33 34 37 40 42 43 46 49 51 48 47 47 48 48 46 47 46
20 21 24 27 29 33 38 41 36 38 35 34 36 37 39 41 40 29 27 32 38 38 38 33 29 30 32 33 36 39 42 44 47 49 51 50 49 50 51 50 48 48 48
20 23 27 28 30 35 39 41 42 39 31 35 37 37 43 36 35 33 33 34 37 40 39 32 33 32 32 33 35 38 41 44 47 49 50 49 50 49 55 51 52 54 46
24 26 27 28 31 33 43 44 39 29 31 39 41 40 39 36 32 31 33 32 33 37 41 35 34 34 36 39 40 43 44 46 48 49 49 48 50 51 56 48 46 39 34
26 27 26 23 28 25 27 29 30 30 32 32 26 36 34 31 33 33 32 31 32 33 37 38 37 36 40 43 45 46 47 48 45 48 50 50 52 53 54 44 39 38 36
29 28 27 26 28 22 22 23 27 31 31 31 29 30 30 32 33 32 31 32 33 31 36 41 41 40 42 45 48 48 49 50 47 49 53 55 48 40 38 37 39 41 42
26 27 26 30 24 25 25 32 31 36 37 31 31 30 31 32 31 30 31 32 33 34 37 41 43 44 45 47 49 50 50 49 48 49 51 48 42 37 38 37 40 43 46
30 28 33 29 26 29 30 35 34 35 32 29 29 31 30 30 30 31 32 33 35 37 38 40 43 45 46 47 49 49 50 46 46 45 43 41 37 34 38 41 43 44 39
31 35 36 29 29 26 37 32 36 32 28 30 31 31 30 30 30 32 35 37 39 40 41 42 46 48 49 50 51 48 46 45 45 37 38 36 30 36 38 40 38 36 32
37 35 32 31 35 34 39 28 30 30 30 31 30 30 29 30 31 34 37 39 41 41 42 45 48 51 51 52 52 48 44 45 47 39 35 36 38 37 36 37 37 37 35
33 33 34 39 40 32 37 27 29 30 30 30 30 30 30 32 34 37 39 40 41 41 43 47 49 50 52 51 52 49 42 51 43 36 34 34 34 35 34 35 35 33 31
33 36 34 38 31 41 34 29 29 30 30 29 29 31 34 35 37 40 42 43 43 42 43 45 48 50 51 50 49 47 43 42 42 35 33 33 31 31 31 31 30 28 27
30 34 33 38 39 34 31 31 29 29 29 30 32 34 36 38 40 41 43 45 45 44 44 46 47 48 47 47 44 41 34 35 35 32 28 28 27 29 29 28 26 25 23
33 34 35 34 30 31 32 31 30 31 31 33 34 35 36 39 41 43 44 46 47 46 47 46 45 45 44 41 38 37 33 30 32 29 26 27 26 30 30 26 22 21 22
Wind_Direction
188 203 196 190 188 210 210 253 259 272 307 324 314 289 293 302 318 325 332 352 356 354 352 348 342 340 336 334 330 329 327 325 322 319 312 307 305 301 298 295 292 291 292
197 201 194 184 205 218 232 252 264 282 291 287 283 282 287 297 305 310 321 354 349 350 348 343 340 335 333 330 327 326 324 322 317 314 309 306 303 302 300 298 296 292 288
198 190 195 207 213 226 237 249 271 276 267 270 281 298 304 300 298 306 293 337 338 345 345 341 337 333 329 327 324 325 322 319 315 312 309 306 305 303 301 299 296 294 292
175 198 196 208 228 222 236 257 261 263 268 274 286 293 288 276 277 294 289 316 318 334 337 335 335 331 329 324 322 321 318 315 313 310 309 307 306 305 306 305 304 302 299
191 191 204 221 231 232 247 263 268 270 281 290 296 300 300 298 286 282 297 311 316 327 333 333 334 329 324 318 316 316 313 312 310 308 307 307 307 306 305 305 305 304 304
196 198 216 235 231 240 253 272 274 273 277 284 297 300 299 298 303 294 294 295 302 319 328 334 330 324 322 318 313 312 308 308 305 304 304 304 304 304 304 304 303 304 303
198 204 213 227 234 249 258 266 262 266 268 273 292 305 308 303 303 309 305 302 307 318 326 326 323 319 316 313 310 311 309 305 301 299 300 300 300 301 302 303 303 302 302
211 220 226 230 247 253 255 262 264 265 268 274 284 296 295 300 304 303 305 306 308 315 317 319 318 315 314 311 309 308 308 304 299 297 297 297 298 299 300 300 300 299 299
219 227 234 248 254 262 259 259 265 266 270 273 277 289 292 300 309 310 306 308 309 312 315 316 315 312 310 308 303 305 306 303 300 298 298 297 298 299 299 298 297 296 294
223 234 244 251 272 270 266 265 265 265 271 275 275 278 286 295 302 302 306 311 309 312 312 310 311 310 308 304 304 305 302 301 303 300 297 296 298 299 297 295 295 294 292
242 248 255 246 271 273 260 257 262 266 269 276 275 277 286 287 296 299 298 299 301 303 303 305 305 306 304 305 305 304 305 305 303 300 299 300 300 299 297 297 295 293 291
248 257 262 267 266 275 267 265 262 266 262 266 274 280 285 283 291 290 295 308 309 303 298 296 295 297 298 295 298 302 303 303 305 307 305 304 302 301 298 298 296 293 291
258 262 266 272 272 276 275 276 272 264 261 263 270 274 279 282 281 281 290 300 298 296 296 293 293 294 294 296 297 298 300 304 306 305 305 305 304 300 298 296 296 296 292
266 266 269 276 285 282 275 277 275 255 259 268 271 278 280 287 278 288 298 302 297 297 292 294 296 294 295 296 298 301 303 302 301 300 300 302 303 300 302 300 298 302 296
261 264 269 277 280 283 281 284 260 262 265 264 269 272 283 280 281 304 305 295 293 292 293 297 295 294 296 296 297 295 295 294 295 296 298 301 303 302 304 302 298 304 297
261 280 280 293 291 291 274 267 258 262 273 266 264 278 275 279 295 294 288 285 287 290 294 297 300 303 304 304 304 302 300 299 298 298 299 303 300 299 300 297 303 309 299
268 275 284 278 294 308 268 295 291 283 276 305 283 272 280 288 289 292 288 288 288 292 294 300 303 306 305 305 303 302 302 298 294 293 295 295 297 296 298 294 300 305 312
267 279 279 283 289 302 281 298 293 285 292 306 282 282 288 285 288 287 291 294 294 295 297 303 305 307 305 303 302 301 300 297 294 288 292 296 295 295 292 294 301 305 311
267 270 269 282 289 299 306 279 271 284 290 287 284 290 288 288 289 294 292 291 294 297 299 300 303 304 303 302 300 299 297 295 294 290 288 285 288 287 290 293 299 305 307
273 275 280 286 279 289 293 281 280 277 287 285 288 287 288 287 288 288 289 291 292 293 295 297 299 300 300 301 298 296 294 290 294 295 293 285 281 284 294 292 297 301 299
278 283 279 290 268 293 289 273 278 285 284 286 289 289 286 286 288 290 291 293 296 297 298 299 299 300 303 303 301 297 293 290 294 297 295 287 275 287 293 297 294 292 287
269 277 276 271 286 265 278 274 291 291 284 286 285 284 284 287 289 290 293 295 296 296 298 300 301 301 303 301 299 296 296 287 293 291 292 282 285 288 288 289 291 286 284
267 266 269 280 285 275 280 285 285 282 283 283 283 284 287 288 291 293 293 292 293 296 298 298 300 300 299 300 297 292 281 282 289 292 290 288 284 287 288 288 287 285 284
261 268 266 258 267 280 287 289 284 282 284 284 284 287 289 291 293 293 294 295 296 296 297 297 298 300 299 299 295 291 283 275 284 283 286 283 282 289 287 291 287 284 281
259 263 255 274 278 284 284 284 282 281 281 282 286 288 291 293 294 295 295 296 297 300 297 298 300 300 300 299 297 289 280 279 278 283 288 278 288 292 291 293 286 279 278
253 258 267 275 280 276 280 280 280 283 285 288 289 290 293 295 295 295 297 297 298 299 298 300 301 301 301 302 297 287 279 269 268 283 287 280 287 297 294 292 289 283 278